| time (UTC) | temp C | wind direction | speed KPH | gust KPH | rain 1hr cm | rain 24hr cm | rain mn cm | humidity % | barometer mb |
| 20260903210036 | 31 | 0.0 | 0.0 | 0.00 | 0.00 | 0.00 | 44 | 1018.7 | |
| 20260903205623 | 31 | 0.0 | 0.0 | 0.00 | 0.00 | 0.00 | 44 | 1018.6 | |
| 20260903205018 | 31 | 0.0 | 0.0 | 0.00 | 0.00 | 0.00 | 44 | 1018.6 | |
| 20260903204526 | 31 | 0.0 | 0.0 | 0.00 | 0.00 | 0.00 | 44 | 1018.5 | |
| 20260903204013 | 31 | 0.0 | 0.0 | 0.00 | 0.00 | 0.00 | 43 | 1018.4 | |
| 20260903203521 | 32 | 0.0 | 0.0 | 0.00 | 0.00 | 0.00 | 44 | 1018.3 | |
| 20260903203020 | 32 | 0.0 | 0.0 | 0.00 | 0.00 | 0.00 | 43 | 1018.3 | |
| 20260903202517 | 32 | 0.0 | 0.0 | 0.00 | 0.00 | 0.00 | 43 | 1018.2 | |
| 20260903202025 | 32 | 0.0 | 0.0 | 0.00 | 0.00 | 0.00 | 43 | 1018.1 | |
| 20260903201533 | 32 | 0.0 | 0.0 | 0.00 | 0.00 | 0.00 | 43 | 1018.0 | |
| 20260903201018 | 32 | 0.0 | 0.0 | 0.00 | 0.00 | 0.00 | 43 | 1017.8 | |
| 20260903200529 | 32 | 0.0 | 0.0 | 0.00 | 0.00 | 0.00 | 43 | 1017.7 | |
| 20260903200030 | 33 | 0.0 | 0.0 | 0.00 | 0.00 | 0.00 | 43 | 1017.6 | |
| 20260903195538 | 33 | 0.0 | 0.0 | 0.00 | 0.00 | 0.00 | 43 | 1017.4 | |
| 20260903195107 | 33 | 0.0 | 0.0 | 0.00 | 0.00 | 0.00 | 42 | 1017.4 | |
| 20260903194029 | 33 | 0.0 | 0.0 | 0.00 | 0.00 | 0.00 | 41 | 1017.4 | |
| 20260903193514 | 33 | 0.0 | 0.0 | 0.00 | 0.00 | 0.00 | 41 | 1017.3 | |
| 20260903193028 | 33 | 0.0 | 0.0 | 0.00 | 0.00 | 0.00 | 41 | 1017.2 | |
| 20260903192516 | 34 | 0.0 | 0.0 | 0.00 | 0.00 | 0.00 | 40 | 1017.1 | |
| 20260903192044 | 34 | 0.0 | 0.0 | 0.00 | 0.00 | 0.00 | 39 | 1017.1 | |
| 20260903191524 | 35 | 0.0 | 0.0 | 0.00 | 0.00 | 0.00 | 39 | 1017.0 | |
| 20260903191010 | 35 | 0.0 | 0.0 | 0.00 | 0.00 | 0.00 | 38 | 1017.0 | |
| 20260903190520 | 35 | 0.0 | 0.0 | 0.00 | 0.00 | 0.00 | 38 | 1016.9 | |
| 20260903190028 | 35 | 0.0 | 0.0 | 0.00 | 0.00 | 0.00 | 37 | 1017.0 | |
| 20260903185535 | 35 | 0.0 | 0.0 | 0.00 | 0.00 | 0.00 | 37 | 1016.9 | |
| 20260903185017 | 36 | 0.0 | 0.0 | 0.00 | 0.00 | 0.00 | 35 | 1016.8 | |
| 20260903184513 | 36 | 0.0 | 0.0 | 0.00 | 0.00 | 0.00 | 33 | 1016.8 | |
| 20260903184038 | 37 | 0.0 | 0.0 | 0.00 | 0.00 | 0.00 | 30 | 1016.8 | |
| 20260903183518 | 37 | 0.0 | 0.0 | 0.00 | 0.00 | 0.00 | 28 | 1016.8 | |
| 20260903183012 | 38 | 0.0 | 0.0 | 0.00 | 0.00 | 0.00 | 25 | 1016.8 | |
| 20260903182514 | 38 | 0.0 | 0.0 | 0.00 | 0.00 | 0.00 | 24 | 1016.8 | |
| 20260903182016 | 38 | 0.0 | 0.0 | 0.00 | 0.00 | 0.00 | 25 | 1016.8 | |
| 20260903181517 | 38 | 0.0 | 0.0 | 0.00 | 0.00 | 0.00 | 25 | 1017.0 | |
| 20260903181025 | 38 | 0.0 | 0.0 | 0.00 | 0.00 | 0.00 | 24 | 1017.0 | |
| 20260903180514 | 38 | 0.0 | 0.0 | 0.00 | 0.00 | 0.00 | 24 | 1017.0 | |
| 20260903180023 | 38 | 0.0 | 0.0 | 0.00 | 0.00 | 0.00 | 24 | 1017.1 | |
| 20260903175543 | 38 | 0.0 | 0.0 | 0.00 | 0.00 | 0.00 | 24 | 1017.1 | |
| 20260903175030 | 38 | 0.0 | 0.0 | 0.00 | 0.00 | 0.00 | 24 | 1017.1 | |
| 20260903174537 | 38 | 0.0 | 0.0 | 0.00 | 0.00 | 0.00 | 24 | 1017.2 | |
| 20260903174018 | 38 | 0.0 | 0.0 | 0.00 | 0.00 | 0.00 | 24 | 1017.3 | |
| 20260903173526 | 39 | 0.0 | 0.0 | 0.00 | 0.00 | 0.00 | 24 | 1017.2 | |
| 20260903173026 | 39 | 0.0 | 0.0 | 0.00 | 0.00 | 0.00 | 23 | 1017.2 | |
| 20260903172520 | 39 | 0.0 | 0.0 | 0.00 | 0.00 | 0.00 | 23 | 1017.2 | |
| 20260903172025 | 39 | 0.0 | 0.0 | 0.00 | 0.00 | 0.00 | 23 | 1017.2 | |
| 20260903171525 | 39 | 0.0 | 0.0 | 0.00 | 0.00 | 0.00 | 23 | 1017.3 | |
| 20260903171012 | 39 | 0.0 | 0.0 | 0.00 | 0.00 | 0.00 | 23 | 1017.4 | |
| 20260903170520 | 39 | 0.0 | 0.0 | 0.00 | 0.00 | 0.00 | 22 | 1017.3 | |
| 20260903170021 | 39 | 0.0 | 0.0 | 0.00 | 0.00 | 0.00 | 22 | 1017.3 | |
| 20260903164518 | 40 | 0.0 | 0.0 | 0.00 | 0.00 | 0.00 | 22 | 1017.5 | |
| 20260903164026 | 39 | 0.0 | 0.0 | 0.00 | 0.00 | 0.00 | 22 | 1017.5 | |
| 20260903163526 | 39 | 0.0 | 0.0 | 0.00 | 0.00 | 0.00 | 23 | 1017.5 | |
| 20260903163014 | 39 | 0.0 | 0.0 | 0.00 | 0.00 | 0.00 | 23 | 1017.4 | |
| 20260903162602 | 38 | 0.0 | 0.0 | 0.00 | 0.00 | 0.00 | 23 | 1017.4 | |
| 20260903162129 | 38 | 0.0 | 0.0 | 0.00 | 0.00 | 0.00 | 23 | 1017.4 | |
| 20260903161523 | 38 | 0.0 | 0.0 | 0.00 | 0.00 | 0.00 | 23 | 1017.4 | |
| 20260903161030 | 38 | 0.0 | 0.0 | 0.00 | 0.00 | 0.00 | 23 | 1017.4 | |
| 20260903160519 | 38 | 0.0 | 0.0 | 0.00 | 0.00 | 0.00 | 22 | 1017.5 | |
| 20260903160025 | 38 | 0.0 | 0.0 | 0.00 | 0.00 | 0.00 | 22 | 1017.5 | |
| 20260903155526 | 38 | 0.0 | 0.0 | 0.00 | 0.00 | 0.00 | 22 | 1017.6 | |
| 20260903154514 | 38 | 0.0 | 0.0 | 0.00 | 0.00 | 0.00 | 22 | 1017.6 | |
| 20260903154022 | 38 | 0.0 | 0.0 | 0.00 | 0.00 | 0.00 | 22 | 1017.6 | |
| 20260903153530 | 38 | 0.0 | 0.0 | 0.00 | 0.00 | 0.00 | 24 | 1017.6 | |
| 20260903153031 | 38 | 0.0 | 0.0 | 0.00 | 0.00 | 0.00 | 25 | 1017.6 | |
| 20260903152512 | 38 | 0.0 | 0.0 | 0.00 | 0.00 | 0.00 | 25 | 1017.6 | |
| 20260903152016 | 38 | 0.0 | 0.0 | 0.00 | 0.00 | 0.00 | 26 | 1017.7 | |
| 20260903151524 | 37 | 0.0 | 0.0 | 0.00 | 0.00 | 0.00 | 26 | 1017.8 | |
| 20260903151023 | 37 | 0.0 | 0.0 | 0.00 | 0.00 | 0.00 | 26 | 1018.0 | |
| 20260903150513 | 37 | 0.0 | 0.0 | 0.00 | 0.00 | 0.00 | 26 | 1018.1 | |
| 20260903150019 | 37 | 0.0 | 0.0 | 0.00 | 0.00 | 0.00 | 29 | 1018.2 | |
| 20260903145015 | 37 | 0.0 | 0.0 | 0.00 | 0.00 | 0.00 | 30 | 1018.3 | |
| 20260903144543 | 37 | 0.0 | 0.0 | 0.00 | 0.00 | 0.00 | 30 | 1018.3 | |
| 20260903144030 | 37 | 0.0 | 0.0 | 0.00 | 0.00 | 0.00 | 31 | 1018.3 | |
| 20260903143538 | 37 | 0.0 | 0.0 | 0.00 | 0.00 | 0.00 | 31 | 1018.4 | |
| 20260903143018 | 36 | 0.0 | 0.0 | 0.00 | 0.00 | 0.00 | 31 | 1018.4 | |
| 20260903142539 | 36 | 0.0 | 0.0 | 0.00 | 0.00 | 0.00 | 31 | 1018.5 | |
| 20260903142026 | 36 | 0.0 | 0.0 | 0.00 | 0.00 | 0.00 | 30 | 1018.5 | |
| 20260903141534 | 36 | 0.0 | 0.0 | 0.00 | 0.00 | 0.00 | 29 | 1018.6 | |
| 20260903141014 | 36 | 0.0 | 0.0 | 0.00 | 0.00 | 0.00 | 29 | 1018.6 | |
| 20260903140523 | 36 | 0.0 | 0.0 | 0.00 | 0.00 | 0.00 | 30 | 1018.7 | |
| 20260903140031 | 36 | 0.0 | 0.0 | 0.00 | 0.00 | 0.00 | 31 | 1018.7 | |
| 20260903135512 | 36 | 0.0 | 0.0 | 0.00 | 0.00 | 0.00 | 30 | 1018.7 | |
| 20260903135036 | 36 | 0.0 | 0.0 | 0.00 | 0.00 | 0.00 | 30 | 1018.8 | |
| 20260903134517 | 36 | 0.0 | 0.0 | 0.00 | 0.00 | 0.00 | 28 | 1018.8 | |
| 20260903134045 | 35 | 0.0 | 0.0 | 0.00 | 0.00 | 0.00 | 27 | 1018.9 | |
| 20260903133526 | 35 | 0.0 | 0.0 | 0.00 | 0.00 | 0.00 | 28 | 1018.9 | |
| 20260903132539 | 35 | 0.0 | 0.0 | 0.00 | 0.00 | 0.00 | 30 | 1019.0 | |
| 20260903132025 | 34 | 0.0 | 0.0 | 0.00 | 0.00 | 0.00 | 32 | 1019.1 | |
| 20260903131511 | 34 | 0.0 | 0.0 | 0.00 | 0.00 | 0.00 | 35 | 1019.1 | |
| 20260903131011 | 34 | 0.0 | 0.0 | 0.00 | 0.00 | 0.00 | 36 | 1019.2 | |
| 20260903130521 | 34 | 0.0 | 0.0 | 0.00 | 0.00 | 0.00 | 39 | 1019.2 | |
| 20260903125536 | 33 | 0.0 | 0.0 | 0.00 | 0.00 | 0.00 | 41 | 1019.3 | |
| 20260903125017 | 33 | 0.0 | 0.0 | 0.00 | 0.00 | 0.00 | 41 | 1019.4 | |
| 20260903124025 | 33 | 0.0 | 0.0 | 0.00 | 0.00 | 0.00 | 41 | 1019.4 | |
| 20260903123529 | 32 | 0.0 | 0.0 | 0.00 | 0.00 | 0.00 | 40 | 1019.4 | |
| 20260903123029 | 32 | 0.0 | 0.0 | 0.00 | 0.00 | 0.00 | 43 | 1019.4 | |
| 20260903122535 | 32 | 0.0 | 0.0 | 0.00 | 0.00 | 0.00 | 43 | 1019.5 | |
| 20260903122016 | 31 | 0.0 | 0.0 | 0.00 | 0.00 | 0.00 | 43 | 1019.5 | |
| 20260903121524 | 31 | 0.0 | 0.0 | 0.00 | 0.00 | 0.00 | 44 | 1019.6 | |
| 20260903121031 | 31 | 0.0 | 0.0 | 0.00 | 0.00 | 0.00 | 44 | 1019.6 | |
| 20260903120539 | 31 | 0.0 | 0.0 | 0.00 | 0.00 | 0.00 | 46 | 1019.7 | |
| 20260903120025 | 30 | 0.0 | 0.0 | 0.00 | 0.00 | 0.00 | 45 | 1019.7 | |
| 20260903115523 | 30 | 0.0 | 0.0 | 0.00 | 0.00 | 0.00 | 45 | 1019.7 | |
| 20260903115030 | 30 | 0.0 | 0.0 | 0.00 | 0.00 | 0.00 | 46 | 1019.8 | |
| 20260903114054 | 30 | 0.0 | 0.0 | 0.00 | 0.00 | 0.00 | 48 | 1020.1 | |
| 20260903113513 | 29 | 0.0 | 0.0 | 0.00 | 0.00 | 0.00 | 49 | 1020.1 | |
| 20260903112537 | 29 | 0.0 | 0.0 | 0.00 | 0.00 | 0.00 | 51 | 1020.1 | |
| 20260903111531 | 28 | 0.0 | 0.0 | 0.00 | 0.00 | 0.00 | 51 | 1020.2 | |
| 20260903111011 | 28 | 0.0 | 0.0 | 0.00 | 0.00 | 0.00 | 52 | 1020.3 | |
| 20260903110515 | 28 | 0.0 | 0.0 | 0.00 | 0.00 | 0.00 | 52 | 1020.4 | |
| 20260903110043 | 27 | 0.0 | 0.0 | 0.00 | 0.00 | 0.00 | 51 | 1020.5 | |
| 20260903105523 | 27 | 0.0 | 0.0 | 0.00 | 0.00 | 0.00 | 54 | 1020.5 | |
| 20260903105031 | 27 | 0.0 | 526.3 | 0.00 | 0.00 | 0.00 | 54 | 1020.4 | |
| 20260903104536 | 27 | 0.0 | 0.0 | 0.00 | 0.00 | 0.00 | 56 | 1020.5 | |
| 20260903104017 | 27 | 0.0 | 0.0 | 0.00 | 0.00 | 0.00 | 58 | 1020.6 | |
| 20260903103524 | 26 | 0.0 | 0.0 | 0.00 | 0.00 | 0.00 | 58 | 1020.5 | |
| 20260903103031 | 26 | 0.0 | 0.0 | 0.00 | 0.00 | 0.00 | 59 | 1020.4 | |
| 20260903102514 | 26 | 0.0 | 0.0 | 0.00 | 0.00 | 0.00 | 60 | 1020.5 | |
| 20260903102019 | 26 | 0.0 | 0.0 | 0.00 | 0.00 | 0.00 | 62 | 1020.5 | |
| 20260903101519 | 26 | 0.0 | 0.0 | 0.00 | 0.00 | 0.00 | 63 | 1020.6 | |
| 20260903100514 | 25 | 0.0 | 0.0 | 0.00 | 0.00 | 0.00 | 65 | 1020.4 | |
| 20260903100038 | 25 | 0.0 | 0.0 | 0.00 | 0.00 | 0.00 | 64 | 1020.3 | |
| 20260903095525 | 25 | 0.0 | 0.0 | 0.00 | 0.00 | 0.00 | 65 | 1020.3 | |
| 20260903095109 | 25 | 0.0 | 0.0 | 0.00 | 0.00 | 0.00 | 67 | 1020.3 | |
| 20260903094531 | 24 | 0.0 | 0.0 | 0.00 | 0.00 | 0.00 | 67 | 1020.4 | |
| 20260903094018 | 24 | 0.0 | 0.0 | 0.00 | 0.00 | 0.00 | 67 | 1020.4 | |
| 20260903093530 | 23 | 0.0 | 0.0 | 0.00 | 0.00 | 0.00 | 69 | 1020.4 | |
| 20260903093036 | 23 | 0.0 | 0.0 | 0.00 | 0.00 | 0.00 | 69 | 1020.3 | |
| 20260903092531 | 23 | 0.0 | 526.3 | 0.00 | 0.00 | 0.00 | 70 | 1020.2 | |
| 20260903092031 | 23 | 0.0 | 0.0 | 0.00 | 0.00 | 0.00 | 71 | 1020.3 | |
| 20260903091538 | 23 | 0.0 | 0.0 | 0.00 | 0.00 | 0.00 | 72 | 1020.3 | |
| 20260903090512 | 22 | 0.0 | 0.0 | 0.00 | 0.00 | 0.00 | 73 | 1020.1 | |
| 20260903090018 | 22 | 0.0 | 0.0 | 0.00 | 0.00 | 0.00 | 74 | 1020.1 | |
| 20260903085516 | 22 | 0.0 | 0.0 | 0.00 | 0.00 | 0.00 | 74 | 1019.9 | |
| 20260903085030 | 22 | 0.0 | 0.0 | 0.00 | 0.00 | 0.00 | 73 | 1019.9 | |
| 20260903084536 | 22 | 0.0 | 0.0 | 0.00 | 0.00 | 0.00 | 73 | 1019.9 | |
| 20260903084015 | 22 | 0.0 | 0.0 | 0.00 | 0.00 | 0.00 | 73 | 1019.9 | |
| 20260903083538 | 22 | 0.0 | 0.0 | 0.00 | 0.00 | 0.00 | 74 | 1019.9 | |
| 20260903083053 | 21 | 0.0 | 0.0 | 0.00 | 0.00 | 0.00 | 73 | 1019.9 | |
| 20260903082551 | 21 | 0.0 | 0.0 | 0.00 | 0.00 | 0.00 | 74 | 1019.9 | |
| 20260903082016 | 21 | 0.0 | 0.0 | 0.00 | 0.00 | 0.00 | 74 | 1019.9 | |
| 20260903081521 | 21 | 0.0 | 0.0 | 0.00 | 0.00 | 0.00 | 75 | 1019.9 | |
| 20260903081027 | 21 | 0.0 | 0.0 | 0.00 | 0.00 | 0.00 | 75 | 1019.9 | |
| 20260903080638 | 21 | 0.0 | 0.0 | 0.00 | 0.00 | 0.00 | 77 | 1019.9 | |
| 20260903080013 | 21 | 0.0 | 0.0 | 0.00 | 0.00 | 0.00 | 78 | 1019.9 | |
| 20260903075512 | 21 | 0.0 | 0.0 | 0.00 | 0.00 | 0.00 | 79 | 1019.9 | |
| 20260903075021 | 21 | 0.0 | 0.0 | 0.00 | 0.00 | 0.00 | 79 | 1019.8 | |
| 20260903074527 | 21 | 0.0 | 0.0 | 0.00 | 0.00 | 0.00 | 79 | 1019.9 | |
| 20260903074026 | 21 | 0.0 | 0.0 | 0.00 | 0.00 | 0.00 | 79 | 1019.9 | |
| 20260903073513 | 21 | 0.0 | 0.0 | 0.00 | 0.00 | 0.00 | 78 | 1019.8 | |
| 20260903073022 | 21 | 0.0 | 0.0 | 0.00 | 0.00 | 0.00 | 77 | 1019.8 | |
| 20260903072536 | 21 | 0.0 | 0.0 | 0.00 | 0.00 | 0.00 | 77 | 1019.7 | |
| 20260903072038 | 20 | 0.0 | 0.0 | 0.00 | 0.00 | 0.00 | 76 | 1019.6 | |
| 20260903071518 | 20 | 0.0 | 0.0 | 0.00 | 0.00 | 0.00 | 76 | 1019.6 | |
| 20260903071032 | 20 | 0.0 | 0.0 | 0.00 | 0.00 | 0.00 | 76 | 1019.6 | |
| 20260903070519 | 20 | 0.0 | 0.0 | 0.00 | 0.00 | 0.00 | 77 | 1019.6 | |
| 20260903070027 | 20 | 0.0 | 0.0 | 0.00 | 0.00 | 0.00 | 78 | 1019.6 | |
| 20260903065527 | 20 | 0.0 | 0.0 | 0.00 | 0.00 | 0.00 | 79 | 1019.6 | |
| 20260903064515 | 20 | 0.0 | 0.0 | 0.00 | 0.00 | 0.00 | 79 | 1019.6 | |
| 20260903064022 | 20 | 0.0 | 0.0 | 0.00 | 0.00 | 0.00 | 79 | 1019.5 | |
| 20260903063528 | 20 | 0.0 | 0.0 | 0.00 | 0.00 | 0.00 | 79 | 1019.4 | |
| 20260903063035 | 20 | 0.0 | 0.0 | 0.00 | 0.00 | 0.00 | 79 | 1019.4 | |
| 20260903062525 | 20 | 0.0 | 0.0 | 0.00 | 0.00 | 0.00 | 79 | 1019.5 | |
| 20260903062012 | 20 | 0.0 | 0.0 | 0.00 | 0.00 | 0.00 | 78 | 1019.4 | |
| 20260903061535 | 20 | 0.0 | 0.0 | 0.00 | 0.00 | 0.00 | 78 | 1019.4 | |
| 20260903061015 | 20 | 0.0 | 0.0 | 0.00 | 0.00 | 0.00 | 77 | 1019.3 | |
| 20260903060522 | 20 | 0.0 | 0.0 | 0.00 | 0.00 | 0.00 | 77 | 1019.3 | |
| 20260903060029 | 20 | 0.0 | 0.0 | 0.00 | 0.00 | 0.00 | 75 | 1019.2 | |
| 20260903055528 | 20 | 0.0 | 0.0 | 0.00 | 0.00 | 0.00 | 73 | 1019.2 | |
| 20260903054530 | 20 | 0.0 | 0.0 | 0.00 | 0.00 | 0.00 | 74 | 1019.1 | |
| 20260903054015 | 20 | 0.0 | 0.0 | 0.00 | 0.00 | 0.00 | 75 | 1019.1 | |
| 20260903053522 | 20 | 0.0 | 0.0 | 0.00 | 0.00 | 0.00 | 77 | 1019.0 | |
| 20260903052517 | 20 | 0.0 | 0.0 | 0.00 | 0.00 | 0.00 | 77 | 1019.0 | |
| 20260903052023 | 20 | 0.0 | 0.0 | 0.00 | 0.00 | 0.00 | 77 | 1019.0 | |
| 20260903051523 | 20 | 0.0 | 0.0 | 0.00 | 0.00 | 0.00 | 77 | 1019.0 | |
| 20260903051030 | 20 | 0.0 | 0.0 | 0.00 | 0.00 | 0.00 | 77 | 1019.0 | |
| 20260903050517 | 20 | 0.0 | 0.0 | 0.00 | 0.00 | 0.00 | 77 | 1019.0 | |
| 20260903045514 | 20 | 0.0 | 0.0 | 0.00 | 0.00 | 0.00 | 77 | 1019.0 | |
| 20260903045020 | 20 | 0.0 | 0.0 | 0.00 | 0.00 | 0.00 | 76 | 1018.9 | |
| 20260903044520 | 20 | 0.0 | 0.0 | 0.00 | 0.00 | 0.00 | 76 | 1018.8 | |
| 20260903044027 | 20 | 0.0 | 0.0 | 0.00 | 0.00 | 0.00 | 76 | 1018.7 | |
| 20260903043515 | 20 | 0.0 | 0.0 | 0.00 | 0.00 | 0.00 | 77 | 1018.6 | |
| 20260903043022 | 20 | 0.0 | 0.0 | 0.00 | 0.00 | 0.00 | 78 | 1018.6 | |
| 20260903042523 | 20 | 0.0 | 0.0 | 0.00 | 0.00 | 0.00 | 79 | 1018.7 | |
| 20260903042022 | 20 | 0.0 | 0.0 | 0.00 | 0.00 | 0.00 | 78 | 1018.6 | |
| 20260903041513 | 20 | 0.0 | 0.0 | 0.00 | 0.00 | 0.00 | 78 | 1018.6 | |
| 20260903041020 | 21 | 0.0 | 0.0 | 0.00 | 0.00 | 0.00 | 78 | 1018.7 | |
| 20260903040528 | 21 | 0.0 | 0.0 | 0.00 | 0.00 | 0.00 | 77 | 1018.7 | |
| 20260903040026 | 21 | 0.0 | 0.0 | 0.00 | 0.00 | 0.00 | 76 | 1018.7 | |
| 20260903035527 | 21 | 0.0 | 0.0 | 0.00 | 0.00 | 0.00 | 74 | 1018.8 | |
| 20260903035033 | 21 | 0.0 | 0.0 | 0.00 | 0.00 | 0.00 | 74 | 1018.9 | |
| 20260903034028 | 20 | 0.0 | 0.0 | 0.00 | 0.00 | 0.00 | 71 | 1018.9 | |
| 20260903033537 | 21 | 0.0 | 0.0 | 0.00 | 0.00 | 0.00 | 71 | 1018.9 | |
| 20260903033016 | 21 | 0.0 | 0.0 | 0.00 | 0.00 | 0.00 | 71 | 1018.9 | |
| 20260903032516 | 21 | 0.0 | 0.0 | 0.00 | 0.00 | 0.00 | 71 | 1018.9 | |
| 20260903032023 | 21 | 0.0 | 0.0 | 0.00 | 0.00 | 0.00 | 71 | 1018.8 | |
| 20260903031511 | 21 | 0.0 | 0.0 | 0.00 | 0.00 | 0.00 | 70 | 1018.8 | |
| 20260903031011 | 21 | 0.0 | 0.0 | 0.00 | 0.00 | 0.00 | 69 | 1018.9 | |
| 20260903030526 | 21 | 0.0 | 0.0 | 0.00 | 0.00 | 0.00 | 68 | 1018.9 | |
| 20260903025519 | 22 | 0.0 | 0.0 | 0.00 | 0.00 | 0.00 | 64 | 1018.9 | |
| 20260903025047 | 22 | 0.0 | 0.0 | 0.00 | 0.00 | 0.00 | 63 | 1018.9 | |
| 20260903024535 | 22 | 0.0 | 0.0 | 0.00 | 0.00 | 0.00 | 61 | 1018.8 | |
| 20260903023512 | 22 | 334 | 3.2 | 6.4 | 0.00 | 0.00 | 0.00 | 62 | 1018.8 |
| 20260903023020 | 22 | 333 | 4.8 | 6.4 | 0.00 | 0.00 | 0.00 | 63 | 1018.8 |
| 20260903022038 | 21 | 333 | 4.8 | 6.4 | 0.00 | 0.00 | 0.00 | 66 | 1018.8 |
| 20260903021026 | 21 | 190 | 3.2 | 4.8 | 0.00 | 0.00 | 0.00 | 68 | 1018.8 |
| 20260903020515 | 21 | 190 | 1.6 | 3.2 | 0.00 | 0.00 | 0.00 | 69 | 1018.8 |
| 20260903020043 | 21 | 190 | 0.0 | 1.6 | 0.00 | 0.00 | 0.00 | 69 | 1018.7 |
| 20260903015526 | 21 | 190 | 0.0 | 4.8 | 0.00 | 0.00 | 0.00 | 69 | 1018.7 |
| 20260903015015 | 21 | 190 | 3.2 | 4.8 | 0.00 | 0.00 | 0.00 | 68 | 1018.8 |
| 20260903014515 | 21 | 190 | 1.6 | 4.8 | 0.00 | 0.00 | 0.00 | 69 | 1018.8 |
| 20260903014023 | 21 | 190 | 0.0 | 4.8 | 0.00 | 0.00 | 0.00 | 69 | 1018.9 |
| 20260903013550 | 21 | 190 | 0.0 | 3.2 | 0.00 | 0.00 | 0.00 | 69 | 1019.0 |
| 20260903013017 | 21 | 190 | 0.0 | 4.8 | 0.00 | 0.00 | 0.00 | 69 | 1019.1 |
| 20260903012518 | 21 | 190 | 0.0 | 4.8 | 0.00 | 0.00 | 0.00 | 68 | 1019.1 |
| 20260903011534 | 22 | 190 | 0.0 | 4.8 | 0.00 | 0.00 | 0.00 | 67 | 1019.1 |
| 20260903010529 | 22 | 190 | 3.2 | 6.4 | 0.00 | 0.00 | 0.00 | 65 | 1019.1 |
| 20260903005526 | 22 | 190 | 0.0 | 0.0 | 0.00 | 0.00 | 0.00 | 64 | 1019.3 |
| 20260903005050 | 23 | 190 | 0.0 | 0.0 | 0.00 | 0.00 | 0.00 | 63 | 1019.3 |
| 20260903004517 | 23 | 190 | 0.0 | 0.0 | 0.00 | 0.00 | 0.00 | 62 | 1019.3 |
| 20260903004017 | 23 | 190 | 0.0 | 0.0 | 0.00 | 0.00 | 0.00 | 62 | 1019.3 |
| 20260903003524 | 23 | 190 | 0.0 | 1.6 | 0.00 | 0.00 | 0.00 | 62 | 1019.3 |
| 20260903003012 | 23 | 190 | 0.0 | 3.2 | 0.00 | 0.00 | 0.00 | 61 | 1019.4 |
| 20260903002513 | 23 | 190 | 1.6 | 4.8 | 0.00 | 0.00 | 0.00 | 61 | 1019.4 |
| 20260903002021 | 23 | 190 | 1.6 | 4.8 | 0.00 | 0.00 | 0.00 | 61 | 1019.3 |
| 20260903001522 | 23 | 190 | 3.2 | 4.8 | 0.00 | 0.00 | 0.00 | 60 | 1019.3 |
| 20260903001029 | 23 | 190 | 1.6 | 3.2 | 0.00 | 0.00 | 0.00 | 60 | 1019.4 |
| 20260903000525 | 23 | 190 | 0.0 | 3.2 | 0.00 | 0.00 | 0.00 | 60 | 1019.4 |
| 20260902235514 | 23 | 190 | 0.0 | 3.2 | 0.00 | 0.00 | 0.00 | 60 | 1019.5 |
| 20260902235041 | 23 | 190 | 0.0 | 4.8 | 0.00 | 0.00 | 0.00 | 60 | 1019.5 |
| 20260902234026 | 23 | 190 | 3.2 | 8.0 | 0.00 | 0.00 | 0.00 | 60 | 1019.4 |
| 20260902233534 | 23 | 190 | 1.6 | 8.0 | 0.00 | 0.00 | 0.00 | 61 | 1019.4 |
| 20260902233019 | 23 | 190 | 3.2 | 8.0 | 0.00 | 0.00 | 0.00 | 61 | 1019.3 |
| 20260902232520 | 23 | 190 | 1.6 | 8.0 | 0.00 | 0.00 | 0.00 | 61 | 1019.4 |
| 20260902232047 | 23 | 190 | 3.2 | 6.4 | 0.00 | 0.00 | 0.00 | 61 | 1019.4 |
| 20260902231514 | 23 | 190 | 4.8 | 6.4 | 0.00 | 0.00 | 0.00 | 60 | 1019.4 |
| 20260902231029 | 23 | 190 | 3.2 | 6.4 | 0.00 | 0.00 | 0.00 | 60 | 1019.4 |
| 20260902230529 | 23 | 190 | 1.6 | 6.4 | 0.00 | 0.00 | 0.00 | 60 | 1019.5 |
| 20260902230017 | 23 | 190 | 3.2 | 6.4 | 0.00 | 0.00 | 0.00 | 60 | 1019.5 |
| 20260902225517 | 23 | 190 | 3.2 | 8.0 | 0.00 | 0.00 | 0.00 | 60 | 1019.4 |
| 20260902224529 | 23 | 190 | 4.8 | 11.3 | 0.00 | 0.00 | 0.00 | 60 | 1019.4 |
| 20260902224017 | 23 | 190 | 6.4 | 11.3 | 0.00 | 0.00 | 0.00 | 60 | 1019.4 |
| 20260902223521 | 23 | 190 | 8.0 | 11.3 | 0.00 | 0.00 | 0.00 | 60 | 1019.3 |
| 20260902223029 | 23 | 190 | 6.4 | 11.3 | 0.00 | 0.00 | 0.00 | 61 | 1019.3 |
| 20260902222530 | 23 | 190 | 8.0 | 12.9 | 0.00 | 0.00 | 0.00 | 61 | 1019.4 |
| 20260902222019 | 23 | 190 | 8.0 | 14.5 | 0.00 | 0.00 | 0.00 | 61 | 1019.4 |
| 20260902221521 | 23 | 190 | 6.4 | 14.5 | 0.00 | 0.00 | 0.00 | 61 | 1019.3 |
| 20260902221034 | 23 | 190 | 6.4 | 14.5 | 0.00 | 0.00 | 0.00 | 62 | 1019.3 |
| 20260902220523 | 23 | 190 | 8.0 | 14.5 | 0.00 | 0.00 | 0.00 | 62 | 1019.3 |
| 20260902220030 | 23 | 190 | 9.7 | 14.5 | 0.00 | 0.00 | 0.00 | 62 | 1019.3 |
| 20260902215517 | 23 | 190 | 9.7 | 16.1 | 0.00 | 0.00 | 0.00 | 62 | 1019.4 |
| 20260902215018 | 23 | 190 | 9.7 | 16.1 | 0.00 | 0.00 | 0.00 | 62 | 1019.4 |
| 20260902214531 | 23 | 190 | 9.7 | 16.1 | 0.00 | 0.00 | 0.00 | 63 | 1019.4 |
| 20260902214013 | 23 | 190 | 9.7 | 16.1 | 0.00 | 0.00 | 0.00 | 63 | 1019.4 |
| 20260902213025 | 23 | 190 | 8.0 | 14.5 | 0.00 | 0.00 | 0.00 | 63 | 1019.3 |
| 20260902212523 | 23 | 190 | 6.4 | 14.5 | 0.00 | 0.00 | 0.00 | 63 | 1019.4 |
| 20260902212051 | 23 | 190 | 6.4 | 14.5 | 0.00 | 0.00 | 0.00 | 63 | 1019.4 |
| 20260902211524 | 23 | 190 | 6.4 | 14.5 | 0.00 | 0.00 | 0.00 | 63 | 1019.4 |
| 20260902211025 | 23 | 190 | 6.4 | 17.7 | 0.00 | 0.00 | 0.00 | 64 | 1019.4 |
| 20260902210513 | 23 | 190 | 8.0 | 19.3 | 0.00 | 0.00 | 0.00 | 64 | 1019.4 |